FENGYUN 1C DEB

Satellite information

Favourite Embed

Satellite Type and Status

DEBRISIN ORBIT

Key statistics

Satellite FENGYUN 1C DEB at a glance.

Uptime

9656

Days in orbit

Revolutions

≈ 14.3

Per day

Orbit

SSO

Sun Synchronous Orbit

Inclination

98.4

Latest

Satellite identification and parameters

Extended collection of information and parameters for FENGYUN 1C DEB.

Object identification

Identified? True

Debris? True

Object name: FENGYUN 1C DEB

International designator: 1999-025NN

Object number (NORAD): 30037

Object ID (CCSDS): 30037

Country: PEOPLES REPUBLIC OF CHINA (PRC)

Current information (Y/N): Y

RCS size: SMALL

Orbital parameters

Period: 100.416 minutes

Inclination: 98.3767 deg

SMA: 7156.418 km

Apoapsis: 901.834 km

Periapsis: 654.733 km

RAAN: 266.381 deg

Eccentricy: 0.01726426

Argument of periapsis: 226.8065 deg

Mean anomaly: 159.8496 deg

Mean motion: 14.34033103 rev/day

Mean motion (dot): 0.00000725 rev/day2

B* drag term: 0.0002341899 1/REarth

Two-line elements (TLE)

Creation date: Oct. 16, 2025, 2:37 a.m.

Reference frame: TEME

Reference center: EARTH

Epoch: Oct. 15, 2025, 10 p.m. UTC

TLE line 0: 0 FENGYUN 1C DEB

TLE line 1: 1 30037U 99025NN 25288.91692479 .00000725 00000-0 23419-3 0 9996

TLE line 2: 2 30037 98.3767 266.3810 0172643 226.8065 159.8496 14.34033103979596

Live tracking on map

Real-time ground track for satellite FENGYUN 1C DEB.

In-orbit conjunctions

A list of the most updated potential collisions computed for object FENGYUN 1C DEB.

Target Orbit TCA Probability of collision Miss distance Type
COSMOS 468 LEO 2024-09-01 08:18:51 0.0005933854 85.0 (m) PAYLOAD
COSMOS 1603 LEO 2024-08-13 03:33:54 0.0002878708 663.0 (m) PAYLOAD

Associated space launch

Chinese polar orbiting meteorological satellite

FENGYUN 1C DEB was lifted into orbit during the mission ‘Long March 4B | Feng Yun 1C’, on board a Long March 4B space rocket.

The launch took place on May 10, 1999, 1:33 a.m. from Launch Complex 7.

For more information about the launch, click the button.

Launch to space Long March 4B | Feng Yun 1C
Long March 4B | Feng Yun 1C

Agency: N/A

Status: Launch Successful

Launch date: May 10, 1999, 1:33 a.m. UTC

Rocket: Long March 4B

Launch pad: Launch Complex 7

Location: Taiyuan Satellite Launch Center, People's Republic of China

...

Latest news about this satellite

There are no fresh news available about this satellite. Check back as we update our databases every day.


Newsletter sign-up

Weekly statistics, charts and insights to help you stay on top of the space industry.